This demonstration page uses our WeatherBlox Daily Observations layout. Learn more.

Left ArrowRight Arrow

31.31129, -92.44514

Hourly Observations for August 5, 2018

Temp ( °F °C ) Dew Point ( °F °C ) Humidity (%) Winds ( mph kmh ) Pressure ( in mb ) Visibility ( mi km ) Precip ( " mm )
12:53 am 00:53 Clear 74 23.3 72 22.2 94 94 SSE 3 6 30.09 1019 10 16 0.00 0.03
1:53 am 01:53 Clear 73 22.8 71 21.7 94 94 SE 3 6 30.11 1020 10 16 0.00 0.00
2:53 am 02:53 Clear 73 22.8 71 21.7 94 94 Calm 30.11 1020 10 16 0.00 0.00
3:53 am 03:53 Clear 73 22.8 71 21.7 94 94 Calm 30.11 1020 10 16 0.00 0.00
4:53 am 04:53 Clear 74 23.3 71 21.7 91 91 Calm 30.12 1020 10 16 0.00 0.00
5:53 am 05:53 Clear 73 22.8 71 21.7 94 94 Calm 30.13 1020 10 16 0.00 0.00
6:53 am 06:53 Sunny 74 23.3 71 21.7 91 91 Calm 30.15 1021 10 16 0.00 0.00
7:53 am 07:53 Sunny 75 23.9 72 22.2 90 90 ESE 3 6 30.16 1021 10 16 0.00 0.00
8:53 am 08:53 Sunny 78 25.6 73 22.8 85 85 SE 3 6 30.16 1021 10 16 0.00 0.00
9:53 am 09:53 Sunny 83 28.3 73 22.8 72 72 SE 8 13 30.16 1021 10 16 0.00 0.00
10:53 am 10:53 Sunny 86 30 72 22.2 63 63 VRB 6 9 30.17 1022 10 16 0.00 0.00
11:53 am 11:53 Sunny 88 31.1 70 21.1 55 55 VRB 3 6 30.16 1021 10 16 0.00 0.00
12:53 pm 12:53 Mostly Sunny 91 32.8 70 21.1 50 50 Calm 30.15 1021 10 16 0.00 0.00
1:53 pm 13:53 Sunny 92 33.3 67 19.4 44 44 ESE 5 7 30.12 1020 10 16 0.00 0.00
2:53 pm 14:53 Sunny 94 34.4 67 19.4 41 41 VRB 3 6 30.09 1019 10 16 0.00 0.00
3:53 pm 15:53 Sunny 95 35 66 18.9 39 39 VRB 5 7 30.07 1018 10 16 0.00 0.00
4:53 pm 16:53 Sunny 95 35 65 18.3 37 37 SSE 7 11 30.07 1018 10 16 0.00 0.00
5:53 pm 17:53 Sunny 94 34.4 69 20.6 44 44 S 6 9 30.06 1018 10 16 0.00 0.00
6:12 pm 18:12 Mostly Cloudy with Nearby Thunderstorms 90 32.2 70 21.1 52 52 SE 28 44 30.09 1019 8 13 0.00 0.00
6:33 pm 18:33 Cloudy with Thunderstorms 77 25 71 21.7 82 82 SSE 21 33 30.12 1020 10 16 0.00 0.00
6:53 pm 18:53 Cloudy with Nearby Thunderstorms 77 25 71 21.7 82 82 ESE 17 28 30.13 1020 10 16 0.00 0.00
7:00 pm 19:00 Cloudy with Thunderstorms 77 25 71 21.7 82 82 ESE 10 17 30.12 1020 10 16 0.00 0.00
7:15 pm 19:15 Cloudy 77 25 71 21.7 82 82 N 5 7 30.12 1020 10 16 0.00 0.03
7:37 pm 19:37 Mostly Cloudy with Thunderstorms 77 25 71 21.7 82 82 N 5 7 30.12 1020 10 16 0.00 0.03
7:53 pm 19:53 Partly Cloudy 77 25 72 22.2 85 85 NNE 3 6 30.12 1020 10 16 0.00 0.03
8:53 pm 20:53 Partly Cloudy 76 24.4 72 22.2 88 88 Calm 30.11 1020 10 16 0.00 0.03
9:53 pm 21:53 Clear 75 23.9 72 22.2 90 90 ESE 7 11 30.14 1021 10 16 0.00 0.00
10:53 pm 22:53 Clear 73 22.8 71 21.7 94 94 Calm 30.14 1021 10 16 0.00 0.00
11:53 pm 23:53 Clear 73 22.8 70 21.1 90 90 S 3 6 30.15 1021 10 16 0.00 0.00

Powered by AerisWeather